CEST,Max TemperatureF,Mean TemperatureF,Min TemperatureF,Max Dew PointF,MeanDew PointF,Min DewpointF,Max Humidity, Mean Humidity, Min Humidity, Max Sea Level PressureIn, Mean Sea Level PressureIn, Min Sea Level PressureIn, Max VisibilityMiles, Mean VisibilityMiles, Min VisibilityMiles, Max Wind SpeedMPH, Mean Wind SpeedMPH, Max Gust SpeedMPH,PrecipitationIn, CloudCover, Events, WindDirDegrees
2013-9-1,63,56,50,57,46,39,100,69,39,30.24,30.20,30.12,6,6,3,16,9,,0.00,4,Rain,308
2013-9-2,63,55,47,54,47,43,88,73,44,30.25,30.17,30.12,19,7,6,24,12,,0.00,5,Rain,243
2013-9-3,67,61,55,57,55,54,88,76,63,30.33,30.22,30.12,12,6,6,21,16,,0.00,6,Rain,293
2013-9-4,70,64,57,59,57,54,94,80,61,30.33,30.28,30.21,19,7,6,8,4,,0.00,4,Rain,304
2013-9-5,72,62,52,61,55,52,100,84,48,30.21,30.13,30.04,19,3,0,9,3,,0.00,4,Fog,44
2013-9-6,74,62,51,55,52,50,94,71,39,30.04,30.01,29.96,19,6,2,13,7,,0.00,1,,104
2013-9-7,76,62,48,57,52,46,94,68,44,30.12,30.08,30.03,6,6,6,12,6,,0.00,,,95
2013-9-8,76,64,51,57,53,46,82,65,38,30.13,30.07,30.01,19,9,6,14,8,,0.00,3,,111
2013-9-9,65,58,51,58,52,45,100,78,55,30.10,29.99,29.89,12,6,2,24,7,36,0.04,4,Rain-Thunderstorm,265
2013-9-10,64,56,48,54,48,43,94,80,56,30.09,29.99,29.92,6,6,3,15,8,,0.20,2,Rain,196
2013-9-11,59,54,48,48,46,44,94,79,52,30.01,29.96,29.92,19,7,6,17,10,,0.00,5,,210
2013-9-12,59,54,50,49,47,46,94,83,63,30.01,29.93,29.89,19,7,6,12,9,,0.16,4,Rain,236
2013-9-13,61,55,49,50,49,46,94,82,55,30.07,30.04,30.01,19,7,6,13,8,,0.00,3,Rain,267
2013-9-14,69,60,50,55,50,46,94,75,38,30.04,29.97,29.92,12,6,6,16,12,,0.00,2,Rain,261
2013-9-15,66,60,55,57,56,54,100,87,63,29.92,29.82,29.74,19,6,1,13,8,,0.04,5,Rain,243
2013-9-16,58,56,53,55,52,50,100,89,80,29.74,29.65,29.53,9,6,4,17,8,,0.12,4,Rain,222
2013-9-17,55,48,42,50,43,37,94,82,51,29.72,29.62,29.53,9,6,2,21,12,,0.00,4,Rain,262
2013-9-18,56,48,40,54,45,39,94,90,82,29.67,29.51,29.44,12,6,6,14,9,,0.20,6,Rain,207
2013-9-19,56,49,42,46,43,41,93,80,59,29.95,29.82,29.62,12,6,5,21,10,28,0.02,4,Rain,263
2013-9-20,58,52,46,52,47,43,94,87,77,30.06,29.96,29.92,19,7,6,17,10,,0.08,5,Rain,239
2013-9-21,57,52,48,50,48,46,94,85,72,30.34,30.21,30.06,19,7,6,15,10,,0.00,3,Rain,281
2013-9-22,60,52,45,50,48,45,100,83,58,30.37,30.30,30.24,19,7,6,14,8,,0.00,5,,244
2013-9-23,62,57,52,52,50,47,94,77,59,30.24,30.15,30.09,16,6,6,20,14,,0.00,6,,269
2013-9-24,63,58,53,52,50,48,88,78,64,30.09,30.01,29.95,12,6,6,15,11,,0.00,7,,289
2013-9-25,60,54,48,52,50,45,100,86,69,29.99,29.92,29.83,16,6,4,9,5,,0.00,6,,72
2013-9-26,64,55,46,55,50,43,100,86,50,30.06,29.88,29.77,16,5,3,23,10,36,0.04,4,Rain,303
2013-9-27,54,44,34,45,38,34,100,82,54,30.15,30.07,30.04,12,5,1,9,4,,0.00,3,Fog,11
2013-9-28,56,45,34,41,37,32,93,73,41,30.10,30.02,29.98,19,8,6,9,4,,0.00,1,,88
2013-9-29,56,46,36,41,39,36,100,75,42,30.05,29.98,29.92,16,7,6,20,12,,0.00,1,,86
2013-9-30,55,46,36,39,36,34,93,71,39,29.97,29.91,29.86,16,16,16,17,12,,0.00,,,79